User: anonymous   Login
Location: 81360 Arifat, France
(43.7204°N, 2.3408°E)
Time: 08:10:09
(UTC+02:00)
Language:

GHALIB - Orbit

View from above orbital plane
View from above orbital plane
View from above satellite
View from above satellite

Ground track
Ground track

The orbit data is extracted from the following two-line orbital elements,

1 48962U 21059CM  22140.63890318  .00008322  00000-0  43743-3 0  9992
2 48962  97.5465 270.7707 0008809 185.7258 174.3875 15.15901500 49755
Epoch (UTC): 20 May 2022 15:20:01
Eccentricity: 0.0008809
inclination: 97.5465°
perigee height: 512 km
apogee height: 524 km
right ascension of ascending node: 270.7707°
argument of perigee: 185.7258°
revolutions per day: 15.15901500
mean anomaly at epoch: 174.3875°
orbit number at epoch: 4975

The dashed part of the orbit path shows where the satellite is in the earth's shadow,  

DLR